www.pogodaiklimat.ru

ПОГОДА в Чикаше, OK

  • Прогноз погоды в Чикаше
  • Монитор погоды в Чикаше
  • Климат в Чикаше

АРХИВ ПОГОДЫ в Чикаше

Время (UTC), дата Ветер
(напр.,м/с)
 
Видим.   Явления Облачность Т
(С)
Тd
(С)
f
(%)
Тe
(С)
Тes
(С)
Комфортность

P
(гПа)

Po
(гПа)
Тmin
(С)
Tmax
(С)
R
(мм)
SD
(см)
04:35 26.03 С  16 км    ясно  +5.4  +4.4  93  +1  +1      984.3         
04:55 26.03 СВ  16 км    ясно  +5.3  +4.4  94  +1  +1      984.3  +5.3  +12.9     
05:15 26.03 СВ  16 км    ясно  +5.7  +4.8  94  +1  +1      984.3         
05:35 26.03 СВ  11 км  дымка  ясно  +5.3  +4.4  94  +1  +1      984.0         
05:55 26.03 С  8 км  дымка  ясно  +5.1  +4.3  95  +1  +1      984.0         
06:15 26.03 С  8 км  дымка  ясно  +4.9  +4.1  95  +1  +1      984.0         
06:35 26.03 СВ  8 км  дымка  ясно  +5.0  +4.2  95  +1  +1      984.0         
06:55 26.03 СВ  6 км  дымка  ясно  +5.4  +4.7  95  +1  +1      984.0         
07:15 26.03 С  6 км  дымка  ясно  +5.2  +4.4  95  +1  +1      984.0         
07:35 26.03 С  800 м  дымка  ясно  +5.3  +4.7  96  +1  +1      984.0         
07:55 26.03 СВ  5 км  дымка  ясно  +5.3  +4.5  95  +1  +1      984.0         
08:15 26.03 СВ  4 км  дымка  ясно  +5.0  +4.3  95  0  0      983.6         
08:35 26.03 СВ  5 км  дымка  ясно  +5.0  +4.3  95  +1  +1      983.6         
08:55 26.03 С  5 км  дымка  ясно  +5.1  +4.4  95  0  0      983.6         
09:15 26.03 ЮЗ  4 км  дымка  ясно  +4.7  +3.9  95  +2  +2      984.0         
09:35 26.03   5 км  дымка  ясно  +4.7  +3.9  95  +4  +4      984.3         
09:55 26.03 З  3 км  дымка  ясно  +3.7  +3.1  96  +1  +1      984.6         
10:15 26.03 З  2 км  дымка  ?/?  +3.1  +2.6  97  -1  -1      984.6         
10:35 26.03 З  2 км  дымка  ?/?  +3.1  +2.7  97  -1  -1      985.3         
10:55 26.03 З  2 км  дымка  ?/?  +2.8  +2.4  97  -1  -1      985.3  +2.8  +5.7     
11:15 26.03 З  2 км  дымка  ?/?  +2.7  +2.3  97  -1  -1      985.3         
11:35 26.03 З  400 м  туман  ?/?  +2.9  +2.6  98  -1  -1      985.3         
11:55 26.03 З  400 м  туман  ?/?  +3.1  +2.8  98  -1  -1      985.6         
12:15 26.03 З  3 км  дымка  ?/?  +3.9  +3.6  98  0  0      985.9         
12:35 26.03 СЗ  3 км  дымка  ?/?  +4.5  +4.3  99  +2  +2      986.2         
12:55 26.03   4 км  дымка  ясно  +6.0  +5.7  98  +5  +5      986.2         
13:15 26.03   800 м  дымка  ясно  +7.6  +7.1  97  +7  +10      986.2         
13:35 26.03   6 км  дымка  ясно  +8.7  +7.6  93  +8  +11      986.6         
13:55 26.03   8 км  дымка  ясно  +9.5  +7.8  89  +9  +12      986.6         
14:15 26.03   11 км  мгла  ясно  +10.9  +7.7  81  +10  +18      986.6         
14:35 26.03 ЮВ  11 км    ясно  +11.9  +7.7  75  +10  +14      986.6         
14:55 26.03 Ю  16 км    ясно  +12.2  +7.5  73  +11  +16      986.6         
15:15 26.03 Ю  16 км    ясно  +12.8  +6.8  67  +12  +20      986.9         
15:35 26.03 ЮЗ  16 км    ясно  +13.6  +6.8  63  +13  +21      986.9         
15:55 26.03 В  16 км    ясно  +14.2  +6.4  59  +14  +25  опасность
простуды 
  986.6         
16:15 26.03   16 км    ясно  +14.4  +6.3  58  +14  +32  опасность
простуды 
  986.6         
16:35 26.03 В  16 км    ясно  +15.3  +6.1  54  +16  +30  опасность
простуды 
  986.2         
16:55 26.03 ЮВ  11 км    ясно  +15.6  +6.4  54  +15  +26  опасность
простуды 
  985.9  +2.6  +15.9     
17:15 26.03 Ю  16 км    ясно  +16.0  +6.1  52  +16  +28  опасность
простуды 
  985.6         
17:35 26.03 ЮВ  11 км    ясно  +16.6  +5.0  46  +16  +29  опасность
простуды 
  985.3         
17:55 26.03 ЮВ  16 км    ясно  +17.3  +5.7  46  +17  +29  опасность
простуды 
  984.9         
18:15 26.03 СВ  16 км    ясно  +17.6  +5.8  46  +18  +30  опасность
простуды 
  984.6         
18:35 26.03 ЮВ  16 км    5/0 3000 м
[средняя] 
+18.0  +5.6  44  +18  +24      984.3         
18:55 26.03 ЮВ  16 км    8/0 3000 м
[средняя] 
+18.1  +6.3  46  +18  +24      984.0         
19:15 26.03 ЮВ  16 км    5/0 3000 м
[средняя] 
+18.5  +5.3  42  +19  +29      983.6         
19:35 26.03 Ю  16 км    5/0 3000 м
[средняя] 
+18.7  +5.9  43  +19  +26      983.3         
19:55 26.03 ЮВ  16 км    ясно  +19.2  +6.4  43  +20  +30      983.0         
20:15 26.03 ЮВ  16 км    ясно  +19.0  +5.8  42  +19  +27      982.7         

 

Местоположение метеостанции Chickasha Municipal Airport: широта 35.0961 долгота -97.9661 высота над уровнем моря 351 м.

В архиве по умолчанию представлена погода в Чикаше за последние 1-2 суток. Обновление информации о фактической погоде в базе происходит ежечасно! Архивные данные за месяц целиком и за предыдущие месяцы Вы можете получить, выбрав интересующий диапазон дат из раскрывающегося списка и нажав кнопку "Ввод!".

Внимание! Архив погоды МЕТАР в базе сайта хранится не более 60 дней. Нет смысла пытаться выбрать более раннюю дату.

Внимание! Время в таблицах - всемирное. Для получения местного времени необходимо прибавить поправку, которая в Чикаше равна -6 ч.

Ветер - указаны скорость ветра в м/с и направление, откуда дует ветер: С - северный, СВ - северо-восточный, В - восточный, ЮВ - юго-восточный, Ю - южный, ЮЗ - юго-западный, З - западный, СЗ - северо-западный.
Видимость - горизонтальная дальность видимости в метрах или километрах. При видимости от 1 до 10 км при отсутствии осадков обычно наблюдается дымка, при ухудшении видимости до 1 км и менее - туман. В сухую погоду видимость может ухудшаться дымом, пылью или мглою.
Атмосферные явления - указаны явления, наблюдавшиеся в указанный момент времени.
Облачность - указаны через наклонную черту верхняя и нижняя облачность в баллах и высота нижней границы облаков в метрах. Внимание: облачность, как и прочие метеорологические величины в США измеряются автоматическими метеостанциями. Указанные значения в баллах носят условный характер и показывают процент времени, в течение которого, в среднем, лазерный луч высотомера отражался от облаков обратно.
T - Температура воздуха - температура, измеренная на высоте 2 м над землей.
Td - Температура точки росы - температура, при понижении до которой содержащийся в воздухе водяной пар достигнет насыщения.
f - Относительная влажность воздуха - влажноcть воздуха, измеренная на высоте 2 м над землей.
Te - Эффективная температура - температура, которую ощущает одетый по сезону человек в тени. Характеристика душности погоды. При расчете учитывается влияние влажности воздуха и скорости ветра на теплоощущения человека.
Tes - Эффективная температура на солнце - температура, которую ощущает человек, с поправкой на солнечный нагрев. Характеристика знойности погоды. Зависит от высоты солнца над горизонтом, облачности и скорости ветра. Ночью, в пасмурную погоду, а также при ветре 12 м/с и более поправка равна нулю.
P - Атмосферное давление - приведенное к уровню моря атмосферное давление.
Po - Атмосферное давление - измеренное на уровне метеостанции атмосферное давление.
Tmin - Минимальная температура - минимум температуры воздуха на высоте 2 м над землей.
Tmax - Максимальная температура - максимум температуры воздуха на высоте 2 м над землей.
R - Количество осадков - Количество выпавших осадков за 3 или 6 часов, мм.
SD - Снежный покров - Высота снежного покрова, см.